Regional Weather Roundup
Issued by NWS Raleigh/Durham, NC

Home | Current Version | Previous Version | Text Only | Print | Product List | Glossary On
Versions: 1 2 3 4 5 6 7 8 9 10 11 12 13 14 15 16 17 18 19 20 21 22 23 24 25 26 27 28
000
ASUS42 KRAH 251710
RWRRAH
NORTH CAROLINA WEATHER ROUNDUP
NATIONAL WEATHER SERVICE RALEIGH NC
100 PM EDT SAT OCT 25 2014

NOTE: "FAIR" INDICATES FEW OR NO CLOUDS BELOW 12,000 FEET WITH NO
SIGNIFICANT WEATHER AND/OR OBSTRUCTIONS TO VISIBILITY.

NCZ001-053-055-056-065-067-251800-
WESTERN NORTH CAROLINA

CITY           SKY/WX    TMP DP  RH WIND       PRES   REMARKS
ASHEVILLE      SUNNY     65  38  36 N8        30.07F
JEFFERSON      SUNNY     63  22  21 NW5       30.06S
MORGANTON      SUNNY     68  34  27 CALM      30.06F
HICKORY        SUNNY     68  39  34 NW3       30.02F
RUTHERFORDTON  SUNNY     69  37  31 CALM      30.03F
MOUNT AIRY     SUNNY     68  34  28 N5        30.02F
BOONE          SUNNY     61  17  18 NW14G22   30.07S
$$

NCZ021-022-025-041-071-084-088-251800-
CENTRAL NORTH CAROLINA

CITY           SKY/WX    TMP DP  RH WIND       PRES   REMARKS
CHARLOTTE      MOSUNNY   70  34  26 VRB3      30.03F
GREENSBORO     SUNNY     67  37  33 W3        29.99F
WINSTON-SALEM  SUNNY     69  32  25 VRB3      30.01F
RALEIGH-DURHAM SUNNY     66  41  40 VRB5      29.99F
FORT BRAGG     SUNNY     68  43  40 W7        29.97F
FAYETTEVILLE   SUNNY     68  41  37 NW9       29.99F
BURLINGTON     SUNNY     66  37  34 VRB3      29.99F
LAURINBURG     SUNNY     69  41  36 VRB3      30.00F
$$

NCZ011-015-027-028-043-044-047-080-103-251800-
NORTHEASTERN NORTH CAROLINA

CITY           SKY/WX    TMP DP  RH WIND       PRES   REMARKS
ROCKY MT-WILSO SUNNY     67  43  41 NW5       29.98F
GREENVILLE     SUNNY     68  43  40 CALM      29.98F
WASHINGTON     SUNNY     67  46  45 NE3       29.97F
ELIZABETH CITY SUNNY     70  45  40 NE3       29.95F
MANTEO         SUNNY     65  48  54 N8        29.95F
CAPE HATTERAS  SUNNY     65  55  70 N7        29.95F
$$

NCZ078-087-090-091-093-098-101-251800-
SOUTHEASTERN NORTH CAROLINA

CITY           SKY/WX    TMP DP  RH WIND       PRES   REMARKS
LUMBERTON      SUNNY     72  41  32 NW6       29.98F
GOLDSBORO      SUNNY     68  48  48 VRB1      29.96F
KINSTON        SUNNY     68  45  42 CALM      29.97F
KENANSVILLE      N/A     68  44  42 CALM      29.98F
NEW BERN       SUNNY     71  46  40 CALM      29.98F
CHERRY POINT   SUNNY     71  45  39 CALM      29.98F
BEAUFORT       SUNNY     71  48  43 NW5       29.96F
JACKSONVILLE   SUNNY     69  46  43 VRB3      29.97F
WILMINGTON     SUNNY     72  41  32 N8        29.97F
$$




USA.gov is the U.S. government's official web portal to all federal, state and local government web resources and services.